Fountain Dale, PA

3:44 AM EST on February 25, 2018 (GMT -0500)
Fountain Dale

Weather History for KRYT - November, 2012

Change the Weather History Date:

Sunday, November 11, 2012

  Actual Average (KHGR) Record (KHGR)
Temperature  
Mean Temperature 52 °F -  
Max Temperature 64 °F 51 °F 68 °F (2006)
Min Temperature 39 °F 35 °F 20 °F (2017)
Degree Days  
Heating Degree Days 14    
Growing Degree Days 2 (Base 50)    
Moisture  
Dew Point 38 °F    
Average Humidity 64    
Maximum Humidity 86    
Minimum Humidity 39    
Precipitation  
Precipitation 0.00 in - - ()
Sea Level Pressure  
Sea Level Pressure 30.40 in    
Wind  
Wind Speed 0 mph (NNE)    
Max Wind Speed 5 mph    
Max Gust Speed -    
Visibility 9 miles    
Events      
Averages and records for this station are not official NWS values.
T = Trace of Precipitation, MM = Missing Value Source: NWS Daily Summary

Daily Weather History Graph

Daily Weather History Graph

Search for Another Location

Airport or City:

Trip Planner

Search our weather history database for the weather conditions in past years. The results will help you decide how hot, cold, wet, or windy it might be!

Date:

Astronomy

Nov. 11, 2012 Rise Set
Actual Time 6:50 AM EST 4:56 PM EST
Civil Twilight 6:21 AM EST 5:25 PM EST
Nautical Twilight 5:49 AM EST 5:57 PM EST
Astronomical Twilight 5:17 AM EST 6:29 PM EST
Moon 4:02 AM EST (11/11) 3:18 PM EST (11/11)
Length of Visible Light 11h 04m
Length of Day
10h 06m
Waning Crescent, 7% of the Moon is Illuminated
Nov 11
Waning Crescent
Nov 13
New
Nov 20
First Quarter
Nov 28
Full
Dec 6
Last Quarter

Hourly Weather History & Observations

Time (EST) Temp. Dew Point Humidity Pressure Visibility Wind Dir Wind Speed Gust Speed Precip Events Conditions
12:53 AM 42.1 °F 36.0 °F 79% 30.35 in 8.0 mi Calm Calm - N/A   Clear
1:53 AM 43.0 °F 36.0 °F 76% 30.34 in 9.0 mi Calm Calm - N/A   Clear
4:53 AM 41.0 °F 35.1 °F 79% 30.38 in 10.0 mi Calm Calm - N/A   Clear
5:53 AM 39.0 °F 35.1 °F 86% 30.40 in 8.0 mi Calm Calm - N/A   Clear
6:53 AM 39.0 °F 35.1 °F 86% 30.43 in 5.0 mi Calm Calm - N/A   Clear
7:53 AM 41.0 °F 36.0 °F 82% 30.45 in 6.0 mi Calm Calm - N/A   Haze
8:53 AM 45.0 °F 37.9 °F 76% 30.46 in 9.0 mi Calm Calm - N/A   Clear
9:53 AM 52.0 °F 39.9 °F 63% 30.44 in 9.0 mi Calm Calm - N/A   Clear
10:53 AM 55.9 °F 39.9 °F 55% 30.43 in 8.0 mi Calm Calm - N/A   Clear
11:53 AM 59.0 °F 41.0 °F 51% 30.41 in 7.0 mi North 3.5 mph - N/A   Clear
12:53 PM 62.1 °F 42.1 °F 48% 30.38 in 9.0 mi NNE 4.6 mph - N/A   Clear
1:53 PM 64.0 °F 41.0 °F 43% 30.36 in 10.0 mi NNE 3.5 mph - N/A   Clear
2:53 PM 64.9 °F 39.0 °F 39% 30.36 in 10.0 mi Calm Calm - N/A   Clear
4:53 PM 61.0 °F 37.9 °F 42% 30.39 in 10.0 mi Calm Calm - N/A   Clear
5:53 PM 55.9 °F 39.0 °F 53% 30.40 in 10.0 mi Calm Calm - N/A   Clear
6:53 PM 53.1 °F 39.0 °F 59% 30.42 in 10.0 mi Calm Calm - N/A   Clear
7:53 PM 51.1 °F 39.0 °F 63% 30.42 in 10.0 mi Calm Calm - N/A   Clear
8:53 PM 50.0 °F 39.0 °F 66% 30.41 in 10.0 mi Calm Calm - N/A   Clear
9:53 PM 50.0 °F 39.9 °F 68% 30.41 in 10.0 mi Calm Calm - N/A   Clear
10:53 PM 51.1 °F 39.9 °F 66% 30.40 in 10.0 mi Calm Calm - N/A   Clear
11:53 PM 51.1 °F 39.9 °F 66% 30.39 in 10.0 mi Calm Calm - N/A   Clear